Погода Екеже

Погода Екеже : погода сейчас, прогноз погоды и архив. Всё, что Вы хотите узнать о погоде Екеже!

Хотите узнать прогноз погоды Екеже? Тогда Вам сюда: Погода Екеже

Поиск расширенной информации на нашем сайте:

Другие новости

Новости СМИ2

Главная страница сайта

Новости сайта

03.07.2017

Напоминаем, что на нашем специализированном сайте Метеоцентр.Азия вы можете получить высокодетализированные автоматические прогнозы погоды по пунктам России, СНГ и мира в авиационном формате (включающие направление и скорость ветра, видимость, явления погоды, количество и форму облачности, нижнюю и верхнюю границу облачности).


Погода Екеже - сегодня

Время (UTC), дата Ветер
(°,м/с) 
Видим.   Явления Облачность Т
(°С)
Тd
(°С)
f(%) Тe
(°С)
Pmin
(гПа)
dP
(гПа)
Po
(мм)
O2
(г/м3)
Тmin Tmax R s Состояние
почвы
21 23.05.18 070 (В) 20000 м    ясно 
+21.6 +5 34 +22  1019.2  -0.1  759  283           
00 24.05.18 070 (В) 20000 м    ясно 
+18.4 +3.8 38 +19  1019  -0.2  759  286           
03 24.05.18 070 (В) 20000 м    ясно 
+24.4 +9.2 38 +24  1020.3  1.4  760  280           
06 24.05.18 090 (В) 20000 м    ясно 
+29.8 +11.8 33 +33  1019.8  -0.4  760  274  +18         
12 24.05.18 070 (В) 20000 м    ясно 
+33.4 +11.3 26 +36  1015.7  -2.1  757  270           
15 24.05.18 070 (В) 20000 м    ясно 
+31.4 +7.8 23 +31  1014.3  -1.5  756  272    +33.8       
18 24.05.18 070 (В) 20000 м    ясно 
+24.6 +3.8 26 +25  1015.7  1.3  757  279    +33.8       
21 24.05.18 070 (В) 20000 м    ясно 
+22 +3.6 30 +22  1016.3  0.5  757  282           
00 25.05.18 тихо ()   20000 м    ясно 
+19 +3.2 35 +19  1016.7  0.4  758  285           
03 25.05.18 тихо ()   20000 м    ясно 
+21 +4.1 33 +21  1014.4  -2.3  756  282           
06 25.05.18 090 (В) 20000 м    ясно 
+30.6 +6.4 22 +31  1013.7  -0.5  755  273  +18.5         
09 25.05.18 090 (В) 20000 м    ясно 
+35 +6.1 17 +35  1011.9  -1.7  754  268           
12 25.05.18 090 (В) 20000 м    ясно 
+37 +3.8 13 +37  1010.3  -1.6  753  267           
15 25.05.18 090 (В) 20000 м    ясно 
+35.4 +3.4 14 +35  1009.6  -0.7  752  268    +37.4       
18 25.05.18 070 (В) 20000 м    ясно 
+28.6 +3.8 20 +29  1009  -0.7  752  274    +37.4       
21 25.05.18 070 (В) 20000 м    ясно 
+25.8 +5 26 +26  1008.8  -0.3  752  276           
00 26.05.18 тихо ()   20000 м    ясно 
+15.6 -2.2 29 +16  1007.3  -1.7  750  286           
03 26.05.18 тихо ()   20000 м    ясно 
+25.2 +4.1 26 +25  1007.4  0.3  751  276           
06 26.05.18 тихо ()   20000 м    4/0 верхняя 
[Ci ing]
+33.4 +8.5 22 +33  1006.5  -0.3  750  268  +15         
09 26.05.18 160 (Ю) 20000 м    3/0 верхняя 
[Ci fib]
+38 +9.3 18 +38  1005  -1.7  749  263           
12 26.05.18 230 (ЮЗ) 20000 м    4/0 верхняя 
[Ci fib]
+39.4 +7.8 15 +39  1003.6  -1.4  748  262           
15 26.05.18 230 (ЮЗ) 20000 м    6/0 верхняя 
[Cc]
+36.6 +5.5 15 +37  1003.3  -0.5  748  265           
18 26.05.18 230 (ЮЗ) 20000 м    6/0 
+32.4 +5.8 19 +32  1004.6  1.2  749  269    +39.8       
21 26.05.18 250 (З) 20000 м    6/6 600 м 
[Sc]
+28.8 +9.3 30 +29  1005  0.4  749  271           
00 27.05.18 250 (З) 20000 м    6/6 600 м 
[Sc]
+24.2 +9.8 40 +25  1005.6  0.5  749  276           
Время (UTC), дата Ветер
(°,м/с) 
Видим.   Явления Облачность Т
(°С)
Тd
(°С)
f(%) Тe
(°С)
Pmin
(гПа)
dP
(гПа)
Po
(мм)
O2
(г/м3)
Тmin Tmax R s Состояние
почвы

Для получения пояснительной информации подведите курсор к названию столбца.

ПОГОДА Екеже - архив

Всё, что Вы хотите узнать о погоде Екеже - удобно и подробно!

Выберите нужную дату (начиная с 1 января 2015* года) и нажмите кнопку "Найти".
Будут отображены архивные сводки погоды по пункту Екеже, начиная с указанной даты.


Отображать данные в формате CSV (для использования в таблицах Excel)


Внимание! Наш архив погоды предназначен исключительно для личного некоммерческого использования в познавательных целях. Если Вам необходимы официальные справки о состоянии погоды (для производственных, юридических, коммерческих и т.п. целей), обращайтесь в органы Росгидромета.

*Примечание: данная дата относится к архиву по метеостанциям СССР (Россия, СНГ, Балтия).
Архив по метеостанциям Зарубежной Европы и Азии (кроме Китая) хранится 10 дней, по другим регионам земного шара (Китай, Африка, Америка, Австралия, Океания) - 1 день.

Екеже - район местоположения метеостанции


Название, широта, долгота, высота метеостанции:
Екеже 41°ш. 57.8°д. 308 м над ур. моря [Туркменистан]

Дополнительная информация

В oтличие oт бoльшинства пoгoдных сайтoв мы публикуем пoдрoбную метеoинфoрмацию в детальнoм прoфессиoнальнoм фoрмате.

Характеристики температуры и влажнoсти вoздуха измеряются на высoте 2 м в тени вдали oт зданий и деревьев.
Скoрoсть ветра измеряется на высoте 10 м (на урoвне рoста челoвека скoрoсть ветра ниже в 1.5-2 раза). Если метеoстанция нахoдится в гoрoде или в лесу, тo скoрoсть ветра занижена на 2-4 м/с пo сравнению с oткрытым местoм. Скoрoсть ветра над акватoриями крупных рек и oзёр, а также на вершинах хoлмoв на 2-5 м/с выше, чем в oбычных услoвиях.
Атмoсфернoе давление в разных тoчках местнoсти мoжет значительнo oтличаться oт давления на метеoстанции, в зависимoсти oт услoвий рельефа (при пoдъёме на 10 м давление пoнижается примернo на 1 мм рт.ст.).